"2009-02-10 00:00:30",616671,2.84,349.5,5.246,0.371,4.443,102.3125,5.201,6.056,25.63,0,110,13.44,5.97,311.5
"2009-02-10 00:01:00",616672,4.33,348.6,6.413,1.227,6.38,102.3128,5.202,6.236,25.52,0,110,13.41,5.97,310.6
"2009-02-10 00:01:30",616673,5.585,342.2,7.117,1.31,8.45,102.3063,5.185,6.308,25.61,0,110,13.41,5.96,304.2
"2009-02-10 00:02:00",616674,4.231,336.8,5.063,1.215,6.785,102.3043,5.18,6.166,25.5,0,110,13.41,5.95,298.8
"2009-02-10 00:02:30",616675,4.341,339.9,8.82,1.156,6.384,102.3035,5.178,6.166,25.65,0,110,13.41,5.95,301.9
"2009-02-10 00:03:00",616676,4.951,331.6,11.93,1.591,6.417,102.2891,5.141,6.143,25.72,0,110,13.41,5.91,293.6
"2009-02-10 00:03:30",616677,3.41,314.1,10.94,1.035,5.602,102.2729,5.1,6.174,25.69,0,110,13.42,5.87,276.1
"2009-02-10 00:04:00",616678,5.094,329,5.126,1.279,7.409,102.2704,5.094,6.091,25.48,0,110,13.42,5.86,291.0
"2009-02-10 00:04:30",616679,3.999,327.9,9.57,1.048,7.29,102.2704,5.094,6.18,25.82,0,110,13.42,5.86,289.9
"2009-02-10 00:05:00",616680,3.604,333,10.26,1.392,7.937,102.2704,5.094,6.229,26.02,0,110,13.42,5.86,295.0
"2009-02-10 00:05:30",616681,3.405,328.1,16.91,1.377,6.793,102.2682,5.088,6.056,26.06,0,110,13.42,5.86,290.1
"2009-02-10 00:06:00",616682,2.964,321.2,12.47,1.187,6.375,102.2546,5.053,6.098,26.16,0,110,13.42,5.82,283.2
"2009-02-10 00:06:30",616683,3.482,314.4,10.45,1.196,6.352,102.2391,5.014,5.98,26.26,0,110,13.42,5.78,276.4
"2009-02-10 00:07:00",616684,3.336,306,2.265,1.392,6.517,102.2365,5.007,6.134,26.51,0,110,13.42,5.78,268.0
"2009-02-10 00:07:30",616685,4.198,290.7,13.43,1.087,6.361,102.2292,4.988,6.044,26.71,0,110,13.42,5.76,252.7
"2009-02-10 00:08:00",616686,5.731,291.3,16.71,1.003,8.15,102.2035,4.923,6.132,26.05,0,110,13.42,5.69,253.3
"2009-02-10 00:08:30",616687,4.916,273.4,11.69,1.363,7.271,102.1882,4.884,6.041,25.67,0,110,13.42,5.65,235.4
"2009-02-10 00:09:00",616688,4.777,267.6,7.396,1.741,6.204,102.1685,4.833,5.903,25.93,0,110,13.42,5.60,229.6
"2009-02-10 00:09:30",616689,5.207,264.3,8.74,1.756,5.984,102.1512,4.789,5.98,26.29,0,110,13.42,5.56,226.3
"2009-02-10 00:10:00",616690,7.607,264.3,7.411,1.22,7.511,102.1349,4.748,5.9,25.14,0,110,13.42,5.52,226.3
"2009-02-10 00:10:30",616691,8.57,267.7,5.794,1.251,8.35,102.1303,4.736,5.958,24.83,0,110,13.42,5.50,229.7
"2009-02-10 00:11:00",616692,8.88,268.1,5.781,0.781,9.29,102.1024,4.665,5.966,24.98,0,110,13.42,5.43,230.1
"2009-02-10 00:11:30",616693,8.48,271.3,8.53,1.183,8.93,102.0982,4.654,5.903,25.04,0,110,13.42,5.42,233.3
"2009-02-10 00:12:00",616694,8.58,276.5,7.268,1.362,8.46,102.075,4.595,5.832,25.1,0,110,13.41,5.36,238.5
"2009-02-10 00:12:30",616695,7.931,276.7,7.031,1.051,6.189,102.0671,4.575,5.795,25.12,0,110,13.41,5.34,238.7
"2009-02-10 00:13:00",616696,8.64,282.5,6.405,1.346,7.018,102.0671,4.575,5.619,24.95,0,110,13.41,5.34,244.5
"2009-02-10 00:13:30",616697,8.63,280.2,6.952,1.186,7.877,102.0584,4.552,5.756,25.08,0,110,13.41,5.32,242.2
"2009-02-10 00:14:00",616698,8.3,285.9,6.841,1.056,9.22,102.0505,4.532,5.753,25.26,0,110,13.41,5.30,247.9
"2009-02-10 00:14:30",616699,8.48,286.3,3.791,0.971,9.58,102.0536,4.54,5.798,25.55,0,110,13.41,5.31,248.3
"2009-02-10 00:15:00",616700,7.965,278.3,6.858,1.227,7.765,102.0602,4.557,5.775,25.6,0,110,13.41,5.32,240.3
"2009-02-10 00:15:30",616701,5.735,274.6,2.936,0.336,4.44,102.0639,4.566,5.565,25.45,0,110,13.45,5.33,236.6
"2009-02-10 00:16:00",616702,7.249,285.5,3.667,0.961,6.842,102.0668,4.574,5.577,25.52,0,109.9,13.42,5.34,247.5
"2009-02-10 00:16:30",616703,8.43,287,4.156,1.187,7.325,102.0705,4.583,5.719,25.01,0,109.9,13.42,5.35,249.0
"2009-02-10 00:17:00",616704,9.72,281.5,4.986,0.719,9.54,102.0712,4.585,5.782,24.8,0,109.9,13.42,5.35,243.5
"2009-02-10 00:17:30",616705,8.06,291.7,6.853,1.068,9.25,102.0704,4.583,5.804,24.74,0,109.9,13.42,5.35,253.7
"2009-02-10 00:18:00",616706,6.322,275.1,9.33,1.026,7.216,102.0659,4.572,5.704,24.67,0,109.9,13.42,5.34,237.1
"2009-02-10 00:18:30",616707,4.865,260.6,3.042,0.5,4.303,102.0606,4.558,5.526,24.61,0,109.9,13.46,5.33,222.6
"2009-02-10 00:19:00",616708,7.145,263.8,7.918,1.297,6.306,102.0584,4.552,5.535,24.41,0,109.9,13.43,5.32,225.8
"2009-02-10 00:19:30",616709,6.344,265.3,9.28,1.53,6.562,102.0387,4.502,5.617,24.46,0,109.9,13.43,5.27,227.3
"2009-02-10 00:20:00",616710,8.38,270.9,5.897,0.9,9.21,102.024,4.464,5.707,24.68,0,109.9,13.43,5.23,232.9
"2009-02-10 00:20:30",616711,7.766,280.8,8.93,0.634,9.53,102.0031,4.411,5.655,24.79,0,109.9,13.44,5.18,242.8
"2009-02-10 00:21:00",616712,5.847,280,7.345,1.515,7.954,101.9983,4.399,5.563,24.89,0,109.9,13.44,5.17,242.0
"2009-02-10 00:21:30",616713,3.328,285.6,6.412,0.435,4.009,101.9907,4.379,5.301,24.73,0,109.9,13.47,5.15,247.6
"2009-02-10 00:22:00",616714,4.231,306.5,15.81,1.839,5.914,101.9805,4.353,5.467,24.96,0,109.9,13.44,5.12,268.5
"2009-02-10 00:22:30",616715,3.6,311.4,3.749,0.841,3.963,101.9791,4.35,5.341,25.18,0,109.9,13.44,5.12,273.4
"2009-02-10 00:23:00",616716,4.413,303.1,5.057,1.293,5.674,101.9695,4.325,5.311,25.18,0,109.9,13.44,5.09,265.1
"2009-02-10 00:23:30",616717,6.91,299.3,4.937,1.199,9.14,101.9661,4.317,5.579,25.66,0,109.9,13.44,5.08,261.3
"2009-02-10 00:24:00",616718,8.23,294.3,5.169,0.894,8.32,101.9661,4.317,5.486,24.93,0,109.9,13.44,5.08,256.3
"2009-02-10 00:24:30",616719,8.99,292.3,8.11,1.38,8.12,101.9658,4.316,5.527,24.76,0,109.9,13.44,5.08,254.3
"2009-02-10 00:25:00",616720,7.907,283.1,10.73,1.412,7.212,101.9506,4.277,5.357,24.72,0,109.9,13.44,5.04,245.1
"2009-02-10 00:25:30",616721,7.886,285.1,7.435,1.985,6.049,101.9322,4.23,5.344,24.75,0,109.9,13.44,5.00,247.1
"2009-02-10 00:26:00",616722,8.69,299.3,9.01,1.072,7.606,101.9322,4.23,5.369,24.74,0,109.9,13.44,5.00,261.3
"2009-02-10 00:26:30",616723,9.62,292.3,6.941,1.28,8.38,101.9322,4.23,5.46,24.8,0,109.9,13.44,5.00,254.3
"2009-02-10 00:27:00",616724,9.93,294.1,5.531,1.067,8.28,101.9351,4.237,5.378,24.62,0,109.9,13.45,5.00,256.1
"2009-02-10 00:27:30",616725,10.7,290.7,5.082,1.223,8.59,101.9388,4.247,5.505,24.93,0,109.9,13.45,5.01,252.7
"2009-02-10 00:28:00",616726,10.05,299.2,7.338,0.78,9.14,101.9497,4.275,5.487,25.6,0,109.9,13.45,5.04,261.2
"2009-02-10 00:28:30",616727,9.32,303.2,5.49,1.206,8.31,101.9528,4.283,5.418,25.92,0,109.9,13.44,5.05,265.2
"2009-02-10 00:29:00",616728,8.14,306.6,8.8,1.313,6.348,101.9518,4.28,5.371,26.02,0,109.9,13.44,5.05,268.6
"2009-02-10 00:29:30",616729,8.26,317.3,6.096,1.258,7.117,101.9699,4.326,5.41,26.32,0,109.9,13.44,5.09,279.3
"2009-02-10 00:30:00",616730,9.08,322.5,5.309,1.202,8.76,101.9955,4.392,5.438,26.5,0,109.9,13.44,5.16,284.5
"2009-02-10 00:30:30",616731,8,318.4,9.37,1.129,8.62,102.0289,4.477,5.522,26.56,0,109.9,13.44,5.24,280.4
"2009-02-10 00:31:00",616732,6.537,319,5.165,1.228,8.82,102.0397,4.504,5.61,26.42,0,109.8,13.44,5.27,281.0
"2009-02-10 00:31:30",616733,6.593,317.5,8.48,0.995,8.46,102.0563,4.547,5.551,26.31,0,109.8,13.44,5.31,279.5
"2009-02-10 00:32:00",616734,3.81,310.8,5.893,0.873,5.251,102.0685,4.578,5.401,26.1,0,109.8,13.45,5.35,272.8
"2009-02-10 00:32:30",616735,5.127,325.2,7.212,1.174,6.89,102.0744,4.593,5.504,26.05,0,109.8,13.44,5.36,287.2
"2009-02-10 00:33:00",616736,4.914,311.9,4.717,1.262,6.378,102.0939,4.643,5.519,25.98,0,109.8,13.45,5.41,273.9
"2009-02-10 00:33:30",616737,6.756,305.5,8.37,1.38,8.26,102.1024,4.665,5.676,26.24,0,109.8,13.45,5.43,267.5
"2009-02-10 00:34:00",616738,7.674,314.7,4.745,0.978,9.47,102.1024,4.665,5.731,26.31,0,109.8,13.45,5.43,276.7
"2009-02-10 00:34:30",616739,6.245,325.2,5.356,1.443,8.6,102.1024,4.665,5.712,26.25,0,109.8,13.45,5.43,287.2
"2009-02-10 00:35:00",616740,4.491,313,10.55,0.938,6.034,102.1024,4.665,5.59,26.08,0,109.8,13.45,5.43,275.0
"2009-02-10 00:35:30",616741,5.313,316.2,9.01,0.508,4.83,102.101,4.661,5.569,26.07,0,109.8,13.46,5.43,278.2
"2009-02-10 00:36:00",616742,7.172,328.5,8.84,1.193,7.898,102.0914,4.637,5.622,25.79,0,109.8,13.46,5.40,290.5
"2009-02-10 00:36:30",616743,7.416,317.8,8.42,1.194,8.63,102.0761,4.598,5.708,25.35,0,109.8,13.46,5.37,279.8
"2009-02-10 00:37:00",616744,8.03,309.7,6.215,0.856,9.56,102.0688,4.579,5.775,25.19,0,109.8,13.46,5.35,271.7
"2009-02-10 00:37:30",616745,7.489,327.7,7.467,1.319,8.2,102.0685,4.578,5.727,25.53,0,109.8,13.46,5.35,289.7
"2009-02-10 00:38:00",616746,6.452,321.5,9.58,1.268,7.23,102.0685,4.578,5.538,25.75,0,109.8,13.46,5.35,283.5
"2009-02-10 00:38:30",616747,6.671,309.6,6.54,1.208,6.872,102.0623,4.562,5.594,25.32,0,109.8,13.46,5.33,271.6
"2009-02-10 00:39:00",616748,5.573,310.5,9.84,0.988,6.53,102.0473,4.524,5.557,24.94,0,109.8,13.47,5.29,272.5
"2009-02-10 00:39:30",616749,6.082,315.2,9.94,1.023,7.994,102.0425,4.512,5.533,24.92,0,109.8,13.47,5.28,277.2
"2009-02-10 00:40:00",616750,7.137,310.1,4.884,0.81,9.24,102.0346,4.492,5.72,25.31,0,109.8,13.47,5.26,272.1
"2009-02-10 00:40:30",616751,7.168,314.3,5.508,1.053,8.18,102.0261,4.47,5.612,25.27,0,109.8,13.47,5.24,276.3
"2009-02-10 00:41:00",616752,6.594,317.5,5.694,1.196,7.814,102.0058,4.418,5.602,25.1,0,109.8,13.47,5.19,279.5
"2009-02-10 00:41:30",616753,5.894,309.7,4.216,0.838,4.961,102.0013,4.406,5.422,25.03,0,109.8,13.47,5.17,271.7
"2009-02-10 00:42:00",616754,7.727,315,6.653,1.245,7.94,102.0013,4.406,5.534,25.26,0,109.8,13.47,5.17,277.0
"2009-02-10 00:42:30",616755,8.24,313.7,4.692,1.171,8.72,102.0024,4.409,5.625,25.42,0,109.8,13.47,5.18,275.7
"2009-02-10 00:43:00",616756,8.45,315.6,3.991,0.716,9.38,101.9985,4.399,5.629,25.3,0,109.8,13.47,5.17,277.6
"2009-02-10 00:43:30",616757,8.15,318.5,5.942,0.605,9.16,101.9949,4.39,5.596,25.22,0,109.8,13.47,5.16,280.5
"2009-02-10 00:44:00",616758,7.197,316.9,6.841,1.242,6.883,101.9904,4.379,5.424,25.25,0,109.8,13.47,5.15,278.9
"2009-02-10 00:44:30",616759,6.277,307.5,3.724,0.607,5.268,101.9815,4.356,5.442,25.44,0,109.7,13.47,5.12,269.5
"2009-02-10 00:45:00",616760,6.969,313.6,5.359,1.301,7.117,101.9855,4.366,5.393,25.35,0,109.8,13.46,5.13,275.6
"2009-02-10 00:45:30",616761,8.24,323.2,5.279,1.063,8.35,101.9867,4.369,5.513,25.49,0,109.8,13.47,5.14,285.2
"2009-02-10 00:46:00",616762,8.47,323,4.738,0.683,9.36,101.9774,4.346,5.563,25.56,0,109.8,13.47,5.11,285.0
"2009-02-10 00:46:30",616763,7.457,320.3,7.052,1.095,8.53,101.9721,4.332,5.538,25.61,0,109.8,13.47,5.10,282.3
"2009-02-10 00:47:00",616764,6.848,321.7,5.516,1.429,7.154,101.9588,4.298,5.406,25.51,0,109.8,13.46,5.07,283.7
"2009-02-10 00:47:30",616765,5.89,324.2,9.5,1.096,6.883,101.9625,4.307,5.373,25.59,0,109.8,13.47,5.07,286.2
"2009-02-10 00:48:00",616766,5.099,314.1,5.121,0.914,5.406,101.9767,4.344,5.367,25.73,0,109.8,13.47,5.11,276.1
"2009-02-10 00:48:30",616767,6.026,312,7.569,1.39,7.744,101.9841,4.363,5.415,25.63,0,109.8,13.47,5.13,274.0
"2009-02-10 00:49:00",616768,5.877,323,6.076,0.913,9.16,101.9946,4.389,5.499,25.51,0,109.8,13.47,5.16,285.0
"2009-02-10 00:49:30",616769,4.676,330.6,4.879,1.16,6.332,102.0014,4.407,5.341,25.26,0,109.8,13.47,5.17,292.6
"2009-02-10 00:50:00",616770,4.699,342,13.91,1.44,7.566,102.0014,4.407,5.476,25.46,0,109.8,13.47,5.17,304.0
"2009-02-10 00:50:30",616771,3.706,336.7,8.97,0.912,5.159,102.0014,4.407,5.334,25.11,0,109.8,13.47,5.17,298.7
"2009-02-10 00:51:00",616772,5.65,326.3,8.26,1.451,7.734,102.0022,4.409,5.444,25.06,0,109.8,13.48,5.18,288.3
"2009-02-10 00:51:30",616773,5.195,316.6,7.458,1.281,7.695,102.0166,4.446,5.503,25.09,0,109.8,13.48,5.21,278.6
"2009-02-10 00:52:00",616774,5.822,318.7,6.865,1.112,7.651,102.0257,4.469,5.475,24.97,0,109.8,13.48,5.24,280.7
"2009-02-10 00:52:30",616775,4.058,324.5,7.849,1.155,6.011,102.0274,4.473,5.435,24.9,0,109.8,13.48,5.24,286.5
"2009-02-10 00:53:00",616776,4.317,318,5.66,1.174,7.114,102.033,4.487,5.547,24.99,0,109.8,13.48,5.26,280.0
"2009-02-10 00:53:30",616777,3.278,313.2,5.924,0.991,5.103,102.0353,4.493,5.418,24.74,0,109.8,13.48,5.26,275.2
"2009-02-10 00:54:00",616778,3.559,313.1,10.53,1.108,8.06,102.0353,4.493,5.54,24.79,0,109.8,13.48,5.26,275.1
"2009-02-10 00:54:30",616779,2.945,311.5,9.68,1.303,6.616,102.037,4.498,5.42,24.7,0,109.8,13.48,5.27,273.5
"2009-02-10 00:55:00",616780,2.821,306.4,8.1,1.213,6.022,102.0429,4.513,5.421,24.65,0,109.8,13.48,5.28,268.4
"2009-02-10 00:55:30",616781,4.119,311,9.73,1.38,6.034,102.0387,4.502,5.576,24.92,0,109.7,13.49,5.27,273.0
"2009-02-10 00:56:00",616782,4.083,306.7,5.604,1.263,6.526,102.0339,4.49,5.448,24.95,0,109.7,13.48,5.26,268.7
"2009-02-10 00:56:30",616783,5.008,307,6.298,1.468,7.088,102.0189,4.451,5.548,25.07,0,109.7,13.49,5.22,269.0
"2009-02-10 00:57:00",616784,4.992,310.2,9.09,0.909,6.207,102.0149,4.441,5.48,24.83,0,109.7,13.49,5.21,272.2
"2009-02-10 00:57:30",616785,5.352,328.6,7.673,1.239,7.647,102.0028,4.41,5.518,24.86,0,109.7,13.49,5.18,290.6
"2009-02-10 00:58:00",616786,4.456,338.7,9.7,1.192,6.484,102.0008,4.405,5.485,25,0,109.7,13.49,5.17,300.7
"2009-02-10 00:58:30",616787,3.449,327.1,10.26,0.849,5.477,101.9782,4.347,5.415,25.05,0,109.7,13.49,5.11,289.1
"2009-02-10 00:59:00",616788,3.456,327.7,9.71,1.32,5.983,101.9666,4.318,5.317,25.02,0,109.7,13.49,5.09,289.7
"2009-02-10 00:59:30",616789,3.521,316.2,6.903,1.336,5.304,101.9459,4.265,5.416,25.28,0,109.7,13.49,5.03,278.2
"2009-02-10 01:00:00",616790,4.339,333.1,8.25,1.307,7.594,101.933,4.232,5.366,25.39,0,109.7,13.49,5.00,295.1
"2009-02-10 01:00:30",616791,5.15,344.3,8.02,1.025,7.743,101.9095,4.172,5.369,25.55,0,109.7,13.49,4.94,306.3
"2009-02-10 01:01:00",616792,5.07,355.9,7.433,1.033,8.09,101.901,4.15,5.314,25.62,0,109.7,13.48,4.92,317.9
"2009-02-10 01:01:30",616793,4.599,353.6,8.54,1.266,6.876,101.9007,4.15,5.279,25.69,0,109.7,13.48,4.92,315.6
"2009-02-10 01:02:00",616794,2.865,348.9,3.04,0.383,3.943,101.9033,4.156,5.095,25.57,0,109.7,13.52,4.92,310.9
"2009-02-10 01:02:30",616795,3.11,357.3,9.36,1.429,5.784,101.9062,4.164,5.259,25.76,0,109.7,13.48,4.93,319.3
"2009-02-10 01:03:00",616796,4.265,351.3,7.548,1.184,6.901,101.9088,4.17,5.208,25.65,0,109.7,13.48,4.94,313.3
"2009-02-10 01:03:30",616797,4.083,339.8,5.666,1.259,7.325,101.9094,4.172,5.344,25.77,0,109.7,13.49,4.94,301.8
"2009-02-10 01:04:00",616798,4.363,342.5,9.14,1.098,7.716,101.9123,4.179,5.333,25.74,0,109.7,13.49,4.95,304.5
"2009-02-10 01:04:30",616799,4.306,335.7,10.39,1.054,6.594,101.9151,4.187,5.238,25.7,0,109.7,13.49,4.95,297.7
"2009-02-10 01:05:00",616800,4.084,331.1,4.016,0.287,4.106,101.9137,4.183,5.155,25.62,0,109.7,13.52,4.95,293.1
"2009-02-10 01:05:30",616801,4.528,332.5,3.859,0.865,5.048,101.916,4.189,5.22,25.64,0,109.7,13.49,4.96,294.5
"2009-02-10 01:06:00",616802,6.831,337.3,6.347,1.159,7.909,101.9163,4.189,5.253,25.7,0,109.7,13.5,4.96,299.3
"2009-02-10 01:06:30",616803,6.703,339.1,6.78,0.795,8.86,101.9152,4.187,5.297,25.88,0,109.7,13.5,4.95,301.1
"2009-02-10 01:07:00",616804,7.681,332.5,5.365,0.699,8.88,101.9022,4.153,5.373,25.95,0,109.7,13.5,4.92,294.5
"2009-02-10 01:07:30",616805,6.369,327.6,8.97,1.199,7.104,101.8996,4.147,5.273,25.77,0,109.7,13.5,4.91,289.6
"2009-02-10 01:08:00",616806,4.723,331,6.682,1.549,6.012,101.8982,4.143,5.112,25.6,0,109.7,13.5,4.91,293.0
"2009-02-10 01:08:30",616807,2.974,328.7,10.11,0.459,4.04,101.9008,4.15,5.075,25.59,0,109.7,13.53,4.92,290.7
"2009-02-10 01:09:00",616808,5.387,333.4,4.474,1.148,8.11,101.9008,4.15,5.259,25.86,0,109.7,13.5,4.92,295.4
"2009-02-10 01:09:30",616809,5.178,338,7.27,1.529,7.963,101.8901,4.123,5.316,25.97,0,109.7,13.5,4.89,300.0
"2009-02-10 01:10:00",616810,6.662,337.9,5.393,0.802,8.88,101.8899,4.122,5.333,26.13,0,109.7,13.5,4.89,299.9
"2009-02-10 01:10:30",616811,5.893,336.2,5.198,1.093,7.448,101.8896,4.121,5.231,26.15,0,109.7,13.5,4.89,298.2
"2009-02-10 01:11:00",616812,5.46,330.2,4.684,1.364,5.757,101.8859,4.112,5.116,26.14,0,109.7,13.5,4.88,292.2
"2009-02-10 01:11:30",616813,5.629,344.1,12,1.415,5.598,101.8641,4.056,4.996,26.19,0,109.7,13.5,4.82,306.1
"2009-02-10 01:12:00",616814,5.672,354.2,7.669,1.547,6.728,101.8574,4.039,5.074,26.28,0,109.8,13.5,4.81,316.2
"2009-02-10 01:12:30",616815,6.751,345.5,5.3,1.107,8.03,101.8585,4.042,5.271,26.54,0,109.7,13.5,4.81,307.5
"2009-02-10 01:13:00",616816,7.296,350.4,3.747,0.655,8.82,101.8562,4.036,5.214,26.65,0,109.7,13.5,4.80,312.4
"2009-02-10 01:13:30",616817,6.395,349.1,7.149,1.22,7.548,101.8427,4.002,5.153,26.69,0,109.7,13.5,4.77,311.1
"2009-02-10 01:14:00",616818,5.072,343.7,8.89,1.139,5.633,101.8291,3.967,5.034,26.62,0,109.7,13.5,4.73,305.7
"2009-02-10 01:14:30",616819,4.641,340.2,4.414,0.986,4.784,101.8278,3.963,5.012,26.66,0,109.7,13.5,4.73,302.2
"2009-02-10 01:15:00",616820,5.663,340.8,7.088,1.284,6.246,101.8275,3.963,4.94,26.64,0,109.7,13.5,4.73,302.8
"2009-02-10 01:15:30",616821,6.544,342.7,4.708,0.75,8.51,101.8263,3.96,5.091,26.88,0,109.7,13.5,4.73,304.7
"2009-02-10 01:16:00",616822,6.632,338.5,4.02,0.746,8.73,101.8148,3.93,5.154,26.97,0,109.7,13.5,4.70,300.5
"2009-02-10 01:16:30",616823,6.246,331.9,7.668,1.025,7.587,101.7998,3.892,5.047,26.88,0,109.7,13.5,4.66,293.9
"2009-02-10 01:17:00",616824,4.027,311.8,1.821,0.126,3.979,101.8007,3.894,4.903,26.64,0,109.7,13.5,4.66,273.8
"2009-02-10 01:17:30",616825,5.009,317.9,5.691,1.279,5.535,101.8044,3.904,4.898,26.62,0,109.7,13.5,4.67,279.9
"2009-02-10 01:18:00",616826,4.445,318.7,4.208,0.965,4.701,101.8018,3.897,4.887,26.66,0,109.7,13.5,4.66,280.7
"2009-02-10 01:18:30",616827,6.165,328.2,3.526,0.969,8.93,101.8038,3.902,5.097,26.87,0,109.7,13.5,4.67,290.2
"2009-02-10 01:19:00",616828,5.955,330.7,4.199,0.61,9.2,101.8015,3.897,5.12,26.9,0,109.7,13.5,4.66,292.7
"2009-02-10 01:19:30",616829,5.107,331.3,5.791,1.277,7.628,101.8035,3.902,5.052,26.83,0,109.7,13.5,4.67,293.3
"2009-02-10 01:20:00",616830,4.446,328.1,6.116,1.277,5.557,101.8013,3.896,4.919,26.7,0,109.7,13.5,4.66,290.1
"2009-02-10 01:20:30",616831,3.555,323.6,2.253,0.185,3.739,101.7987,3.889,4.807,26.62,0,109.7,13.53,4.65,285.6
"2009-02-10 01:21:00",616832,4.195,331.5,5.48,1.085,6.177,101.7987,3.889,4.953,26.77,0,109.7,13.5,4.65,293.5
"2009-02-10 01:21:30",616833,3.896,340.2,4.637,1.296,6.225,101.7993,3.891,4.967,26.71,0,109.7,13.5,4.66,302.2
"2009-02-10 01:22:00",616834,4.882,346.1,4.744,0.949,8.77,101.8044,3.904,5.048,26.68,0,109.7,13.5,4.67,308.1
"2009-02-10 01:22:30",616835,3.891,338.4,7.124,1.113,6.865,101.8219,3.948,4.97,26.52,0,109.7,13.51,4.71,300.4
"2009-02-10 01:23:00",616836,3.135,332.2,5.509,1.127,5.463,101.8315,3.973,4.962,26.61,0,109.7,13.51,4.74,294.2
"2009-02-10 01:23:30",616837,2.157,324.6,2.326,0.136,3.391,101.8324,3.975,4.811,26.45,0,109.7,13.54,4.74,286.6
"2009-02-10 01:24:00",616838,2.396,324.6,4.083,0.627,4.12,101.8324,3.975,4.972,26.59,0,109.7,13.51,4.74,286.6
"2009-02-10 01:24:30",616839,3.053,327.8,5.128,1.187,5.353,101.8324,3.975,4.885,26.53,0,109.7,13.51,4.74,289.8
"2009-02-10 01:25:00",616840,3.509,334.5,5.843,1.177,7.311,101.8324,3.975,5.065,26.77,0,109.7,13.51,4.74,296.5
"2009-02-10 01:25:30",616841,4.234,344.6,5.694,0.936,8.5,101.8315,3.973,5.12,26.78,0,109.7,13.51,4.74,306.6
"2009-02-10 01:26:00",616842,3.34,336.8,7.313,1.176,6.097,101.8307,3.971,4.928,26.6,0,109.7,13.51,4.74,298.8
"2009-02-10 01:26:30",616843,2.484,324.6,4.357,0.616,3.981,101.8293,3.967,4.962,26.68,0,109.7,13.51,4.73,286.6
"2009-02-10 01:27:00",616844,2.653,309.4,7.084,0.172,3.254,101.8233,3.952,4.819,26.57,0,109.7,13.55,4.72,271.4
"2009-02-10 01:27:30",616845,3.453,299.6,11.62,0.998,4.455,101.81,3.918,4.965,26.54,0,109.7,13.51,4.68,261.6
"2009-02-10 01:28:00",616846,6.107,298.7,11.1,1.389,7.821,101.8182,3.939,5.009,25.24,0,109.7,13.52,4.70,260.7
"2009-02-10 01:28:30",616847,6.176,310.5,11.93,0.812,9.18,101.8324,3.975,5.137,25.57,0,109.7,13.52,4.74,272.5
"2009-02-10 01:29:00",616848,4.887,292.5,9.68,0.972,8.43,101.8369,3.987,5.111,25.19,0,109.7,13.52,4.75,254.5
"2009-02-10 01:29:30",616849,5.853,288.3,7.713,1.439,7.121,101.8567,4.037,5.038,24.87,0,109.7,13.51,4.80,250.3
"2009-02-10 01:30:00",616850,4.263,275.9,12.02,0.468,3.873,101.8666,4.063,4.891,24.6,0,109.7,13.55,4.83,237.9
"2009-02-10 01:30:30",616851,5.841,273.4,5.817,1.615,5.213,101.8663,4.062,4.888,24.68,0,109.7,13.51,4.83,235.4
"2009-02-10 01:31:00",616852,7.4,286.4,10.23,1.339,7.338,101.8411,3.998,5.134,25.06,0,109.7,13.52,4.76,248.4
"2009-02-10 01:31:30",616853,8.16,297.6,5.062,0.596,9.05,101.8064,3.909,5.154,25.34,0,109.7,13.52,4.67,259.6
"2009-02-10 01:32:00",616854,7.724,306.2,3.048,0.761,9.01,101.7996,3.892,5.1,25.03,0,109.7,13.52,4.66,268.2
"2009-02-10 01:32:30",616855,6.759,306.6,6.463,1.385,7.805,101.7987,3.889,5.04,24.96,0,109.7,13.51,4.65,268.6
"2009-02-10 01:33:00",616856,6.785,297.8,10.28,1.271,6.235,101.7993,3.891,4.901,25.01,0,109.7,13.51,4.66,259.8
"2009-02-10 01:33:30",616857,4.762,289.1,1.713,0.222,3.94,101.7903,3.868,4.775,24.92,0,109.7,13.54,4.63,251.1
"2009-02-10 01:34:00",616858,5.495,294.1,6.487,1.139,6.363,101.794,3.877,5.024,25.12,0,109.7,13.51,4.64,256.1
"2009-02-10 01:34:30",616859,7.03,300.2,5.746,0.91,8.6,101.7982,3.888,5.076,25.18,0,109.7,13.51,4.65,262.2
"2009-02-10 01:35:00",616860,6.862,303.5,2.362,0.764,8.81,101.8013,3.896,5.055,25.18,0,109.7,13.51,4.66,265.5
"2009-02-10 01:35:30",616861,5.914,298.7,7.277,1.264,6.892,101.8022,3.898,4.994,25.04,0,109.7,13.51,4.66,260.7
"2009-02-10 01:36:00",616862,4.785,295.9,5.875,1.189,5.927,101.8025,3.899,4.918,25,0,109.7,13.51,4.66,257.9
"2009-02-10 01:36:30",616863,3.882,290.7,2.188,0.185,3.774,101.8045,3.904,4.797,24.79,0,109.7,13.54,4.67,252.7
"2009-02-10 01:37:00",616864,5.409,295.7,7.204,1.27,6.103,101.8068,3.91,5.046,25.01,0,109.7,13.51,4.68,257.7
"2009-02-10 01:37:30",616865,6.241,306.9,7.811,0.983,7.94,101.8181,3.939,5.099,24.88,0,109.7,13.51,4.70,268.9
"2009-02-10 01:38:00",616866,5.616,307.9,8.65,1.091,7.621,101.8257,3.958,5.013,24.73,0,109.7,13.51,4.72,269.9
"2009-02-10 01:38:30",616867,6.302,303.5,8.19,1.177,7.475,101.8368,3.987,5.077,24.75,0,109.7,13.51,4.75,265.5
"2009-02-10 01:39:00",616868,6.546,302.9,6.905,1.027,5.492,101.8377,3.989,4.913,24.69,0,109.7,13.52,4.75,264.9
"2009-02-10 01:39:30",616869,6.079,302.1,5.902,0.909,5.348,101.8173,3.937,5.016,24.88,0,109.7,13.52,4.70,264.1
"2009-02-10 01:40:00",616870,6.136,307.2,6.041,1.189,7.003,101.8094,3.916,5.038,24.81,0,109.7,13.51,4.68,269.2
"2009-02-10 01:40:30",616871,6.607,314.4,5.82,1.054,8.16,101.8117,3.922,5.077,24.84,0,109.8,13.52,4.69,276.4
"2009-02-10 01:41:00",616872,5.85,313.6,6.209,1.097,7.372,101.8105,3.919,5.081,24.9,0,109.7,13.52,4.69,275.6
"2009-02-10 01:41:30",616873,5.64,317.1,6.789,1.218,6.89,101.8108,3.92,5.001,24.77,0,109.7,13.52,4.69,279.1
"2009-02-10 01:42:00",616874,5.221,321.4,6.473,1.119,5.968,101.8123,3.924,4.957,24.75,0,109.7,13.52,4.69,283.4
"2009-02-10 01:42:30",616875,5.619,331.2,7.812,1.29,6.551,101.8108,3.92,4.972,25.59,0,109.7,13.52,4.69,293.2
"2009-02-10 01:43:00",616876,5.884,337,6.294,1.24,7.37,101.8035,3.901,5.051,26.5,0,109.7,13.52,4.67,299.0
"2009-02-10 01:43:30",616877,5.335,332.3,5.759,1.23,6.968,101.7947,3.879,4.988,26.56,0,109.7,13.52,4.64,294.3
"2009-02-10 01:44:00",616878,5.836,334,5.14,0.966,7.945,101.795,3.88,4.972,26.16,0,109.7,13.52,4.65,296.0
"2009-02-10 01:44:30",616879,4.642,332.7,8.29,1.377,6.342,101.7973,3.886,4.956,26.09,0,109.7,13.52,4.65,294.7
"2009-02-10 01:45:00",616880,3.998,331.2,7.617,1.174,5.787,101.7959,3.882,4.878,26.14,0,109.7,13.52,4.65,293.2
"2009-02-10 01:45:30",616881,4.541,332.4,8.87,1.098,5.334,101.7967,3.884,4.938,25.8,0,109.6,13.52,4.65,294.4
"2009-02-10 01:46:00",616882,5.472,326.6,5.321,1.143,7.131,101.7959,3.882,4.942,25.61,0,109.7,13.52,4.65,288.6
"2009-02-10 01:46:30",616883,4.687,330.7,7.26,1.222,7.106,101.8024,3.899,5.023,25.85,0,109.7,13.53,4.66,292.7
"2009-02-10 01:47:00",616884,4.732,339.5,6.63,1.202,6.707,101.8035,3.901,4.949,25.88,0,109.7,13.52,4.67,301.5
"2009-02-10 01:47:30",616885,4.844,346.7,7.431,1.227,7.291,101.8024,3.899,4.987,26.5,0,109.7,13.53,4.66,308.7
"2009-02-10 01:48:00",616886,3.528,333.4,6.355,0.807,4.475,101.8018,3.897,4.903,26.14,0,109.7,13.53,4.66,295.4
"2009-02-10 01:48:30",616887,3.488,324.4,5.567,1.083,4.244,101.7973,3.886,4.758,25.79,0,109.7,13.52,4.65,286.4
"2009-02-10 01:49:00",616888,4.083,328.3,6.661,1.364,6.484,101.797,3.885,4.97,25.92,0,109.7,13.53,4.65,290.3
"2009-02-10 01:49:30",616889,4.634,331.2,6.078,1.303,7.006,101.7908,3.869,4.998,26.01,0,109.7,13.52,4.63,293.2
"2009-02-10 01:50:00",616890,4.461,339.4,7.75,0.992,7.282,101.7812,3.845,4.923,26.12,0,109.7,13.52,4.61,301.4